Date String (YYYY-MM-DD hh:mm:ss) UTC,Instrument flags,Ambient pressure (hPa),Sample flow (lpm),Bypass flow (lpm),Sample temperature (°C),Ambient temperature (°C),ASC tube jacket temperature (°C),LED temperature (°C),Box temperature (°C),Sample RH (%),Span deviation,Mass concentration (μg/m³),Mass concentration (μg/m³),Mass concentration (μg/m³)
DateTimeUTC,F1_M11,P_M11,Q1_M11,Q2_M11,T1_M11,T2_M11,T3_M11,T4_M11,T5_M11,U1_M11,ZSPAN_M11,X0_M11,X2_M11,X1_M11
2022-10-16 01:00:00,,0831.2,5.00,0.00,30.1,28.9,00.0,38.8,32.0,15.8,0000.0,0013.70,0004.87,0003.73
2022-10-16 01:01:00,,0831.2,5.00,0.00,30.1,28.9,00.0,38.8,32.0,15.8,0000.0,0014.53,0004.85,0003.71
2022-10-16 01:02:00,,0831.2,5.01,0.00,30.1,28.9,00.0,38.9,32.0,15.8,0000.0,0015.23,0004.82,0003.70
2022-10-16 01:03:00,,0831.2,4.99,0.00,30.2,28.9,00.0,38.9,32.0,15.8,0000.0,0015.89,0004.83,0003.68
2022-10-16 01:04:00,,0831.2,4.99,0.00,30.2,28.9,00.0,38.9,32.0,15.8,0000.0,0015.69,0004.83,0003.67
2022-10-16 01:05:00,,0831.2,5.01,0.00,30.2,28.9,00.0,38.9,32.0,15.7,0000.0,0015.55,0004.79,0003.66
2022-10-16 01:06:00,,0831.2,5.01,0.00,30.2,28.9,00.0,38.9,32.0,15.7,0000.0,0014.49,0004.70,0003.65
2022-10-16 01:07:00,,0831.2,5.00,0.00,30.2,28.9,00.0,38.9,32.0,15.6,0000.0,0014.48,0004.64,0003.64
2022-10-16 01:08:00,,0831.3,4.99,0.00,30.2,28.8,00.0,38.9,32.0,15.6,0000.0,0015.16,0004.59,0003.64
2022-10-16 01:09:00,,0831.3,5.00,0.00,30.2,28.7,00.0,38.9,32.0,15.6,0000.0,0015.68,0004.50,0003.64
2022-10-16 01:10:00,,0831.4,5.01,0.00,30.2,28.7,00.0,38.9,32.0,15.6,0000.0,0015.82,0004.49,0003.64
2022-10-16 01:11:00,,0831.4,5.00,0.00,30.2,28.7,00.0,38.9,32.0,15.6,0000.0,0014.99,0004.44,0003.62
2022-10-16 01:12:00,,0831.5,5.00,0.00,30.2,28.7,00.0,38.9,32.0,15.7,0000.0,0014.63,0004.41,0003.62
2022-10-16 01:13:00,,0831.5,5.00,0.00,30.2,28.7,00.0,38.9,32.0,15.6,0000.0,0014.48,0004.43,0003.63
2022-10-16 01:14:00,,0831.5,5.00,0.00,30.2,28.7,00.0,38.9,32.0,15.6,0000.0,0014.12,0004.43,0003.64
2022-10-16 01:15:00,,0831.5,5.00,0.00,30.2,28.7,00.0,38.9,32.0,15.6,0000.0,0013.96,0004.42,0003.65
2022-10-16 01:16:00,,0831.5,5.00,0.00,30.2,28.8,00.0,38.9,32.0,15.7,0000.0,0013.72,0004.39,0003.65
2022-10-16 01:17:00,,0831.6,5.01,0.00,30.2,28.8,00.0,39.0,32.0,15.7,0000.0,0014.52,0004.43,0003.67
2022-10-16 01:18:00,,0831.6,5.00,0.00,30.2,28.8,00.0,39.0,32.0,15.7,0000.0,0014.71,0004.47,0003.68
2022-10-16 01:19:00,,0831.7,5.00,0.00,30.2,28.8,00.0,39.0,32.0,15.8,0000.0,0013.90,0004.49,0003.70
2022-10-16 01:20:00,,0831.7,5.00,0.00,30.2,28.9,00.0,39.0,32.0,15.8,0000.0,0013.05,0004.49,0003.70
2022-10-16 01:21:00,,0831.8,4.99,0.00,30.2,28.9,00.0,39.0,32.0,15.8,0000.0,0012.04,0004.46,0003.70
2022-10-16 01:22:00,,0831.7,5.01,0.00,30.2,28.9,00.0,39.0,32.0,15.9,0000.0,0012.06,0004.42,0003.71
2022-10-16 01:23:00,,0831.8,5.00,0.00,30.2,28.9,00.0,39.0,32.1,15.9,0000.0,0011.41,0004.41,0003.71
2022-10-16 01:24:00,,0831.7,5.00,0.00,30.2,28.9,00.0,39.0,32.1,16.0,0000.0,0010.13,0004.41,0003.71
2022-10-16 01:25:00,,0831.7,4.99,0.00,30.2,28.9,00.0,39.0,32.1,16.1,0000.0,0009.86,0004.42,0003.71
2022-10-16 01:26:00,,0831.7,5.00,0.00,30.2,28.9,00.0,39.0,32.1,16.1,0000.0,0009.70,0004.41,0003.71
2022-10-16 01:27:00,,0831.7,5.01,0.00,30.2,28.8,00.0,39.0,32.0,16.1,0000.0,0010.37,0004.39,0003.69
2022-10-16 01:28:00,,0831.7,5.00,0.00,30.2,28.8,00.0,39.0,32.0,16.2,0000.0,0010.66,0004.44,0003.67
2022-10-16 01:29:00,,0831.7,5.00,0.00,30.2,28.8,00.0,39.0,32.0,16.2,0000.0,0010.17,0004.41,0003.65
2022-10-16 01:30:00,,0831.7,4.99,0.00,30.2,28.8,00.0,39.0,32.0,16.3,0000.0,0010.52,0004.37,0003.62
2022-10-16 01:31:00,,0831.7,5.01,0.00,30.2,28.8,00.0,39.0,32.0,16.3,0000.0,0010.68,0004.35,0003.59
2022-10-16 01:32:00,,0831.8,5.01,0.00,30.2,28.7,00.0,39.0,32.0,16.3,0000.0,0010.75,0004.34,0003.55
2022-10-16 01:33:00,,0831.9,4.99,0.00,30.2,28.7,00.0,39.0,32.0,16.3,0000.0,0010.69,0004.34,0003.53
2022-10-16 01:34:00,,0831.9,4.99,0.00,30.2,28.7,00.0,39.0,32.0,16.4,0000.0,0011.20,0004.43,0003.52
2022-10-16 01:35:00,,0831.9,5.01,0.00,30.2,28.7,00.0,39.0,32.0,16.4,0000.0,0011.83,0004.41,0003.50
2022-10-16 01:36:00,,0831.9,5.00,0.00,30.2,28.7,00.0,39.0,32.0,16.4,0000.0,0012.29,0004.37,0003.48
2022-10-16 01:37:00,,0832.0,4.99,0.00,30.2,28.7,00.0,39.0,32.0,16.4,0000.0,0012.56,0004.38,0003.46
2022-10-16 01:38:00,,0832.0,4.99,0.00,30.2,28.7,00.0,39.0,32.0,16.4,0000.0,0011.63,0004.39,0003.46
2022-10-16 01:39:00,,0831.9,5.01,0.00,30.2,28.7,00.0,39.0,32.0,16.4,0000.0,0010.79,0004.37,0003.48
2022-10-16 01:40:00,,0831.9,5.01,0.00,30.2,28.7,00.0,39.0,32.0,16.4,0000.0,0010.75,0004.38,0003.49
2022-10-16 01:41:00,,0832.0,5.00,0.00,30.2,28.7,00.0,39.0,32.0,16.4,0000.0,0010.94,0004.42,0003.50
2022-10-16 01:42:00,,0832.0,5.00,0.00,30.2,28.6,00.0,39.0,32.0,16.4,0000.0,0011.26,0004.41,0003.52
2022-10-16 01:43:00,,0832.1,4.99,0.00,30.2,28.7,00.0,39.0,32.0,16.5,0000.0,0012.02,0004.40,0003.53
2022-10-16 01:44:00,,0832.1,4.99,0.00,30.2,28.7,00.0,39.0,32.0,16.5,0000.0,0013.03,0004.41,0003.55
2022-10-16 01:45:00,,0832.1,5.02,0.00,30.2,28.7,00.0,39.0,32.0,16.5,0000.0,0012.66,0004.34,0003.55
2022-10-16 01:46:00,,0832.1,5.00,0.00,30.2,28.7,00.0,39.0,32.0,16.6,0000.0,0012.34,0004.38,0003.57
2022-10-16 01:47:00,,0832.1,4.99,0.00,30.2,28.6,00.0,39.0,32.0,16.6,0000.0,0011.98,0004.39,0003.59
2022-10-16 01:48:00,,0832.1,4.99,0.00,30.2,28.6,00.0,39.0,32.0,16.6,0000.0,0011.57,0004.36,0003.61
2022-10-16 01:49:00,,0832.1,5.01,0.00,30.2,28.6,00.0,39.0,32.0,16.6,0000.0,0011.52,0004.37,0003.63
2022-10-16 01:50:00,,0832.1,5.01,0.00,30.2,28.6,00.0,39.0,32.0,16.6,0000.0,0012.29,0004.37,0003.64
2022-10-16 01:51:00,,0832.2,5.01,0.00,30.2,28.6,00.0,39.0,32.0,16.6,0000.0,0012.81,0004.37,0003.65
2022-10-16 01:52:00,,0832.2,5.00,0.00,30.2,28.6,00.0,39.0,32.0,16.6,0000.0,0014.34,0004.37,0003.66
2022-10-16 01:53:00,,0832.3,4.99,0.00,30.2,28.5,00.0,39.0,31.9,16.6,0000.0,0013.93,0004.39,0003.68
2022-10-16 01:54:00,,0832.4,5.00,0.00,30.2,28.5,00.0,39.0,31.9,16.7,0000.0,0014.02,0004.43,0003.71
2022-10-16 01:55:00,,0832.4,5.01,0.00,30.1,28.5,00.0,39.0,31.9,16.6,0000.0,0013.43,0004.49,0003.74
2022-10-16 01:56:00,,0832.3,4.99,0.00,30.2,28.6,00.0,39.0,31.9,16.6,0000.0,0013.70,0004.56,0003.77
2022-10-16 01:57:00,,0832.3,5.00,0.00,30.2,28.6,00.0,39.0,31.9,16.6,0000.0,0013.77,0004.59,0003.80
2022-10-16 01:58:00,,0832.3,4.99,0.00,30.2,28.6,00.0,39.0,32.0,16.6,0000.0,0013.83,0004.65,0003.82
2022-10-16 01:59:00,,0832.4,5.00,0.00,30.1,28.6,00.0,39.0,31.9,16.6,0000.0,0013.92,0004.69,0003.85
